CW5920 Weather Reports


time (UTC)temp
C
wind
direction
speed
KPH
gust
KPH
rain 1hr
cm
rain 24hr
cm
rain mn
cm
humidity
%
barometer
mb
20260904110516 25 113 3.2 9.7 0.00 0.03 0.00 93 1013.2
20260904105516 25 135 4.8 12.9 0.00 0.03 0.00 93 1013.2
20260904104516 25 135 3.2 6.4 0.00 0.03 0.00 93 1013.3
20260904103535 25 135 1.6 4.8 0.00 0.03 0.00 93 1013.3
20260904102516 25 135 1.6 6.4 0.00 0.03 0.00 93 1013.2
20260904101515 25 135 1.6 6.4 0.00 0.03 0.00 93 1013.2
20260904100515 25 113 1.6 6.4 0.00 0.03 0.00 93 1013.1
20260904095535 25 90 1.6 6.4 0.00 0.03 0.00 92 1013.2
20260904094516 25 113 4.8 9.7 0.00 0.03 0.00 92 1013.0
20260904093535 25 158 3.2 6.4 0.00 0.03 0.00 92 1012.9
20260904092516 25 135 6.4 11.3 0.00 0.03 0.00 92 1012.9
20260904091516 25 135 6.4 14.5 0.00 0.03 0.00 92 1012.9
20260904090536 25 135 4.8 9.7 0.00 0.03 0.00 92 1013.0
20260904085537 25 135 6.4 14.5 0.00 0.03 0.03 92 1013.0
20260904084516 25 135 4.8 11.3 0.00 0.03 0.03 92 1012.9
20260904083537 25 135 6.4 17.7 0.00 0.03 0.03 92 1012.8
20260904082517 25 158 6.4 16.1 0.00 0.03 0.03 92 1012.7
20260904081517 25 135 8.0 17.7 0.00 0.03 0.03 92 1012.7
20260904080516 25 158 8.0 16.1 0.00 0.03 0.03 92 1012.8
20260904075516 25 135 11.3 17.7 0.00 0.03 0.03 92 1012.8
20260904074517 25 158 8.0 16.1 0.00 0.03 0.03 92 1013.0
20260904073516 25 135 8.0 16.1 0.00 0.03 0.03 92 1013.0
20260904072557 25 135 9.7 17.7 0.00 0.03 0.03 92 1013.1
20260904071517 25 135 9.7 17.7 0.00 0.03 0.03 91 1013.0
20260904070517 25 135 8.0 16.1 0.00 0.03 0.03 91 1012.9
20260904065517 25 135 8.0 14.5 0.00 0.03 0.03 91 1013.0
20260904064517 25 135 3.2 11.3 0.03 0.03 0.03 90 1013.2
20260904063536 25 158 1.6 9.7 0.03 0.03 0.03 90 1013.3
20260904062556 25 135 3.2 12.9 0.03 0.03 0.03 89 1013.2
20260904061517 25 113 4.8 11.3 0.03 0.03 0.03 88 1013.4
20260904060516 25 135 3.2 8.0 0.03 0.03 0.03 87 1013.6
20260904055516 26 135 1.6 11.3 0.03 0.03 0.03 85 1013.3
20260904054516 26 135 14.5 25.7 0.00 0.00 0.00 84 1013.0
20260904053517 26 135 3.2 12.9 0.00 0.00 0.00 83 1013.5
20260904052516 26 0.0 3.2 0.00 0.00 0.00 83 1013.7
20260904051517 26 90 11.3 17.7 0.00 0.00 0.00 83 1013.3
20260904050517 26 113 8.0 19.3 0.00 0.00 0.00 82 1013.1
20260904045537 26 113 11.3 22.5 0.00 0.00 0.00 81 1013.0
20260904044516 26 113 14.5 22.5 0.00 0.00 0.00 80 1013.0
20260904043537 26 113 14.5 22.5 0.00 0.00 0.00 79 1013.0
20260904042516 26 113 12.9 24.1 0.00 0.00 0.00 79 1013.0
20260904041537 26 113 12.9 19.3 0.00 0.00 0.00 78 1013.0
20260904040516 26 113 12.9 20.9 0.00 0.00 0.00 77 1013.0
20260904035516 26 113 8.0 17.7 0.00 0.00 0.00 77 1013.2
20260904034516 26 113 12.9 17.7 0.00 0.00 0.00 76 1013.0
20260904033516 26 113 9.7 17.7 0.00 0.00 0.00 76 1013.0
20260904032536 26 113 14.5 19.3 0.00 0.00 0.00 75 1012.9
20260904031516 27 113 9.7 17.7 0.00 0.00 0.00 74 1012.7
20260904030516 27 113 12.9 22.5 0.00 0.00 0.00 74 1012.7
20260904025516 27 90 11.3 20.9 0.00 0.00 0.00 74 1012.6
20260904024517 27 113 14.5 22.5 0.00 0.00 0.00 73 1012.5
20260904023516 27 113 11.3 17.7 0.00 0.00 0.00 72 1012.4
20260904022516 27 113 9.7 19.3 0.00 0.00 0.00 71 1012.3
20260904021537 27 113 11.3 20.9 0.00 0.00 0.00 70 1012.1
20260904020516 27 113 14.5 20.9 0.00 0.00 0.00 70 1012.0
20260904015536 27 113 17.7 29.0 0.00 0.00 0.00 69 1011.7
20260904014517 28 113 14.5 22.5 0.00 0.00 0.00 69 1011.5
20260904013516 28 113 11.3 19.3 0.00 0.00 0.00 69 1011.5
20260904012556 28 113 12.9 20.9 0.00 0.00 0.00 67 1011.2
20260904011516 28 113 19.3 33.8 0.00 0.00 0.00 65 1011.1
20260904010516 29 113 16.1 27.4 0.00 0.00 0.00 63 1011.1
20260904005516 29 113 14.5 25.7 0.00 0.00 0.00 62 1011.0
20260904004536 30 113 17.7 27.4 0.00 0.00 0.00 62 1011.0
20260904003516 30 113 14.5 22.5 0.00 0.00 0.00 63 1010.9
20260904002516 30 113 17.7 27.4 0.00 0.00 0.00 62 1011.1
20260904001557 30 113 19.3 27.4 0.00 0.00 0.00 62 1011.0
20260904000516 31 113 20.9 29.0 0.00 0.00 0.00 63 1010.9
20260903235516 31 113 20.9 32.2 0.00 0.00 0.00 63 1010.9
20260903234516 32 113 17.7 27.4 0.00 0.00 0.00 62 1010.8
20260903233517 32 113 20.9 29.0 0.00 0.00 0.00 61 1010.7
20260903232516 32 113 17.7 25.7 0.00 0.00 0.00 61 1010.5
20260903231517 32 113 17.7 27.4 0.00 0.00 0.00 62 1010.5
20260903230516 32 113 16.1 25.7 0.00 0.00 0.00 62 1010.5
20260903225516 32 113 16.1 29.0 0.00 0.00 0.00 63 1010.4
20260903224516 32 90 17.7 30.6 0.00 0.00 0.00 63 1010.4
20260903223516 32 113 17.7 27.4 0.00 0.00 0.00 63 1010.5
20260903222516 32 113 14.5 19.3 0.00 0.00 0.00 63 1010.5
20260903221516 32 90 16.1 30.6 0.00 0.00 0.00 64 1010.6
20260903220516 32 113 17.7 24.1 0.00 0.00 0.00 63 1010.6
20260903215516 32 113 16.1 25.7 0.00 0.00 0.00 63 1010.6
20260903214516 32 113 14.5 20.9 0.00 0.00 0.00 64 1010.6
20260903213516 32 113 16.1 25.7 0.00 0.00 0.00 65 1010.6
20260903212516 33 90 14.5 25.7 0.00 0.00 0.00 63 1010.7
20260903211516 33 113 12.9 27.4 0.00 0.00 0.00 64 1010.8
20260903210516 32 113 14.5 25.7 0.00 0.00 0.00 65 1010.8
20260903205516 32 113 16.1 22.5 0.00 0.00 0.00 65 1010.9
20260903204556 32 90 14.5 24.1 0.00 0.00 0.00 68 1011.0
20260903203516 31 113 17.7 25.7 0.00 0.00 0.00 69 1011.2
20260903202516 31 113 16.1 25.7 0.00 0.00 0.00 69 1011.2
20260903201516 31 113 17.7 27.4 0.00 0.00 0.00 68 1011.4
20260903200516 31 113 17.7 25.7 0.00 0.00 0.00 68 1011.4
20260903195516 31 113 16.1 22.5 0.00 0.00 0.00 70 1011.5
20260903194516 31 113 16.1 24.1 0.00 0.00 0.00 70 1011.7
20260903193516 31 135 9.7 20.9 0.00 0.00 0.00 70 1011.9
20260903192516 31 135 17.7 25.7 0.00 0.00 0.00 69 1012.1
20260903191516 31 158 8.0 20.9 0.00 0.00 0.00 70 1012.2
20260903190516 31 135 17.7 25.7 0.00 0.00 0.00 70 1012.2
20260903185516 31 135 19.3 29.0 0.00 0.00 0.00 71 1012.5
20260903184516 31 135 12.9 20.9 0.00 0.00 0.00 71 1012.5
20260903183516 31 113 19.3 27.4 0.00 0.00 0.00 71 1012.7
20260903182516 31 135 19.3 32.2 0.00 0.00 0.00 70 1012.9
20260903181516 31 135 17.7 30.6 0.00 0.00 0.00 68 1012.9
20260903180516 31 135 19.3 27.4 0.00 0.00 0.00 67 1013.0
20260903175516 31 113 19.3 27.4 0.00 0.00 0.00 68 1013.1
20260903174516 31 135 19.3 30.6 0.00 0.00 0.00 69 1013.2
20260903173516 31 135 17.7 29.0 0.00 0.00 0.00 69 1013.4
20260903172516 31 113 17.7 27.4 0.00 0.00 0.00 69 1013.5
20260903171556 30 113 14.5 24.1 0.00 0.00 0.00 71 1013.6
20260903170536 30 135 14.5 25.7 0.00 0.00 0.00 71 1013.6
20260903165516 30 135 11.3 20.9 0.00 0.00 0.00 73 1013.6
20260903164516 30 135 12.9 24.1 0.00 0.00 0.00 72 1013.6
20260903163516 30 135 14.5 20.9 0.00 0.00 0.00 73 1013.6
20260903162516 30 113 12.9 22.5 0.00 0.00 0.00 74 1013.6
20260903161536 29 135 11.3 17.7 0.00 0.00 0.00 75 1013.6
20260903160516 29 113 12.9 20.9 0.00 0.00 0.00 76 1013.4
20260903155516 28 135 9.7 17.7 0.00 0.00 0.00 77 1013.5
20260903154516 28 135 8.0 16.1 0.00 0.00 0.00 78 1013.5
20260903153516 28 113 9.7 17.7 0.00 0.00 0.00 79 1013.4
20260903152516 28 158 8.0 16.1 0.00 0.00 0.00 80 1013.5
20260903151516 27 135 8.0 14.5 0.00 0.00 0.00 81 1013.4
20260903150516 27 135 9.7 16.1 0.00 0.00 0.00 82 1013.5
20260903145516 27 135 9.7 16.1 0.00 0.00 0.00 83 1013.5
20260903144516 26 135 3.2 6.4 0.00 0.00 0.00 85 1013.4
20260903143516 26 113 6.4 17.7 0.00 0.00 0.00 85 1013.3
20260903142516 26 113 9.7 16.1 0.00 0.00 0.00 86 1013.2
20260903141516 25 113 8.0 14.5 0.00 0.00 0.00 87 1013.1
20260903140536 25 113 6.4 11.3 0.00 0.00 0.00 88 1013.3
20260903135516 25 113 4.8 11.3 0.00 0.00 0.00 89 1013.2
20260903134516 25 90 3.2 4.8 0.00 0.00 0.00 89 1013.1
20260903133516 24 90 3.2 9.7 0.00 0.00 0.00 90 1013.2
20260903132536 24 90 3.2 9.7 0.00 0.00 0.00 90 1013.3
20260903131516 23 90 1.6 4.8 0.00 0.00 0.00 91 1013.2
20260903130516 23 0.0 3.2 0.00 0.00 0.00 90 1013.2
20260903125536 23 0.0 3.2 0.00 0.00 0.00 90 1013.2
20260903124516 23 0.0 1.6 0.00 0.00 0.00 90 1013.2
20260903123516 23 0.0 3.2 0.00 0.00 0.00 90 1013.2
20260903122516 23 0.0 4.8 0.00 0.00 0.00 90 1013.1
20260903121516 23 0.0 4.8 0.00 0.00 0.00 89 1013.0
20260903120536 23 90 1.6 4.8 0.00 0.00 0.00 89 1013.0
20260903115516 23 90 1.6 4.8 0.00 0.00 0.00 89 1013.0
20260903114516 23 90 3.2 6.4 0.00 0.00 0.00 89 1013.0
20260903113516 23 0.0 4.8 0.00 0.00 0.00 89 1012.9
20260903111516 23 90 3.2 9.7 0.00 0.00 0.00 88 1012.8